Tracking 30923 objects as of 1-Jul-2025
HD Live streaming from Space Station
objects crossing your sky now

CZ-2C R/B

Track CZ-2C R/B now!
10-day predictions


NORAD ID: 48427
Int'l Code: 2021-039E
Perigee: 407.7 km
Apogee: 474.5 km
Inclination: 35.0 °
Period: 93.3 minutes
Semi major axis: 6812 km
RCS: Unknown
Launch date: May 6, 2021
Source: People's Republic of China (PRC)
Launch site: Xichang Space Center, China (XSC)

Note: This is a ROCKET BODY
Your satellite tracking list
Your tracking list is empty




NASA's NSSDC Master Catalog

Two Line Element Set (TLE):
1 48427U 21039E   25181.71441480  .00014227  00000-0  28893-3 0  9995
2 48427  34.9862 341.4320 0049064  18.8057 341.4464 15.44118586230754
Source of the keplerian elements: AFSPC